Location: Tehachapi Municipal Airport
(35.1300°N, 118.4400°W)
Time: 01:59:01
(UTC-07:00)

Daily predictions for brighter satellites

Satellite Brightness Start Highest point End
(mag) Time Altitude Azimuth Time Altitude Azimuth Time Altitude Azimuth
Cosmos 2082 Rocket 2.9 00:03:02 10° N 00:08:15 45° NE 00:08:15 45° NE
CENTAUR R/B 3.9 00:04:49 10° NNW 00:12:29 45° NE 00:15:49 32° E
ALOS 2 4.1 00:14:22 34° NNE 00:14:22 34° NNE 00:17:02 10° N
ATLAS 5 CENTAUR R/B 2.9 00:14:38 38° N 00:14:38 38° N 00:17:46 10° NNE
USA 234 3.1 00:12:20 10° NE 00:18:30 75° E 00:18:30 75° E
Cosmos 1833 Rocket 3.1 00:14:19 10° NNW 00:19:10 59° NNE 00:19:10 59° NNE
ADEOS Rocket 3.0 00:14:06 10° NNE 00:19:39 77° NE 00:19:39 77° NE
Cosmos 1241 Rocket 4.5 00:22:34 72° NE 00:22:34 72° NE 00:28:08 10° NNE
Cosmos 2074 Rocket 4.0 00:29:17 10° N 00:35:08 78° NNW 00:35:08 78° NNW
Cosmos 1943 Rocket 4.2 00:46:20 17° ENE 00:46:20 17° ENE 00:48:29 10° NE
Cosmos 1809 Rocket 4.5 00:38:40 10° N 00:44:09 73° N 00:44:09 73° N
H-2A R/B 3.9 00:51:31 27° NNW 00:51:31 27° NNW 00:53:27 10° NNW
ATLAS 3B R/B 3.8 00:45:01 10° NW 00:49:19 29° W 00:49:19 29° W
CZ-4B R/B 4.4 00:55:56 10° N 01:00:14 45° NW 01:00:14 45° NW
Mayak 1.2 01:09:54 10° NNW 01:11:38 17° NW 01:11:38 17° NW
Cosmos 1140 Rocket 4.2 01:15:37 49° NNE 01:15:37 49° NNE 01:19:20 10° NNE
Cosmos 2181 Rocket 4.1 01:15:17 66° ENE 01:15:17 66° ENE 01:21:12 10° NNE
Cosmos 2154 Rocket 4.1 01:09:34 10° N 01:15:27 72° NW 01:15:27 72° NW
MOS 1 Rocket 4.3 01:17:53 10° NNE 01:21:21 44° NNE 01:21:21 44° NNE
Cosmos 2341 Rocket 4.0 01:18:47 10° N 01:24:56 81° NE 01:24:56 81° NE
Cosmos 2369 Rocket 2.5 01:34:32 63° NE 01:34:32 63° NE 01:39:18 10° NNE
Meteor 2-8 Rocket 4.5 01:36:19 73° NW 01:36:19 73° NW 01:42:06 10° N
Resurs 1-4 Rocket 4.3 01:36:20 10° ENE 01:39:15 15° E 01:39:28 15° E
Cosmos 2218 Rocket 4.2 01:34:58 10° N 01:41:03 59° E 01:41:17 59° E
Sich 1 4.4 01:49:08 37° N 01:49:08 37° N 01:51:51 10° N
SL-8 Rocket 3.9 01:41:54 10° N 01:48:13 83° E 01:48:13 83° E
Cosmos 2082 Rocket 4.2 01:48:04 10° NW 01:50:04 17° WNW 01:50:04 17° WNW
Cosmos 1850 Rocket 4.3 01:56:54 62° NNE 01:56:54 62° NNE 02:01:15 10° NNE
Cosmos 1825 4.4 01:59:45 23° NE 01:59:45 23° NE 02:01:33 10° NNE
Timation 2 Rocket 4.1 01:53:48 10° NNW 02:00:34 82° ENE 02:01:29 69° SE
CENTAUR R/B 3.6 01:55:36 10° NW 02:02:58 44° WSW 02:02:58 44° WSW
SL-16 R/B 4.0 02:00:21 18° ESE 02:03:49 30° ENE 02:09:03 10° N
Cosmos 1633 Rocket 4.1 02:06:36 43° N 02:06:36 43° N 02:09:37 10° N
Cosmos 304 Rocket 4.4 02:01:35 10° N 02:05:33 54° NNE 02:05:33 54° NNE
Cosmos 2263 4.2 02:08:16 72° NNW 02:08:16 72° NNW 02:13:32 10° NNE
Cosmos 2098 Rocket 4.2 02:00:43 10° NNW 02:08:07 68° W 02:08:33 66° WSW
Cosmos 2366 rocket 3.8 02:07:47 10° N 02:13:57 81° W 02:14:05 81° WSW
Cosmos 1408 4.5 02:17:16 30° NNE 02:17:16 30° NNE 02:19:15 10° N
Cosmos 1656 Rocket 4.1 02:16:42 53° ESE 02:16:42 53° ESE 02:22:11 10° NNE
Meteor 2-15 Rocket 4.4 02:17:18 68° SE 02:17:48 72° E 02:23:51 10° NNE
ARIANE 5 R/B 4.4 02:14:45 10° NE 02:18:11 19° E 02:19:04 18° ESE
Nadezhda 3 Rocket 4.2 02:19:05 54° SE 02:20:08 62° E 02:26:23 10° NNE
Cosmos 1782 4.5 02:19:28 10° NNE 02:22:35 29° ENE 02:22:35 29° ENE
H-2A R/B 4.1 02:20:40 10° NE 02:23:21 26° ENE 02:23:21 26° ENE
Meteor 1-26 Rocket 4.1 02:19:25 10° N 02:25:09 84° W 02:25:09 84° W
Meteor 2-15 4.2 02:26:05 75° WSW 02:26:25 78° W 02:32:30 10° N
Cosmos 1943 Rocket 2.7 02:27:51 46° WNW 02:27:55 46° WNW 02:33:16 10° N
CZ-4B R/B 4.0 02:32:24 16° NNW 02:32:24 16° NNW 02:33:09 10° NNW
NPP 3.6 02:26:05 10° NNE 02:31:28 70° ESE 02:31:44 68° SE
Cosmos 1867 4.1 02:31:32 46° ESE 02:31:36 46° ESE 02:36:47 10° NE
Cosmos 1933 Rocket 4.0 02:33:33 58° NNE 02:33:33 58° NNE 02:37:05 10° N
SL-08 R/B 4.3 02:34:03 36° ESE 02:35:09 42° ENE 02:39:36 10° N
CZ-2D R/B 2.3 02:38:55 10° NNE 02:44:11 64° ESE 02:44:54 58° SE
GP-B 3.3 02:42:40 10° N 02:46:34 66° NNW 02:46:34 66° NNW
Cosmos 2208 Rocket 3.9 02:44:40 10° NNW 02:50:04 78° WSW 02:50:24 75° SSW
Cosmos 2242 Rocket 4.0 02:47:22 10° NNW 02:51:00 52° NW 02:51:00 52° NW
Cosmos 1862 4.1 02:52:59 44° E 02:52:59 44° E 02:56:37 10° NNE
ADEOS II 4.4 02:49:44 10° NE 02:52:52 16° E 02:55:58 10° SE
ATLAS 2A CENTAUR R/B 4.4 02:53:30 29° S 02:53:34 29° S 03:00:07 10° ESE
IRS-P3 4.0 02:51:05 10° N 02:56:26 77° WNW 02:57:06 66° SW
Delta 2 Rocket 3.7 02:59:50 63° ESE 02:59:50 63° ESE 03:04:02 10° E
IRS-P3 Rocket 4.5 02:54:58 10° N 03:00:11 71° WNW 03:00:49 63° WSW
Lacrosse 4 Rocket 1.4 03:00:34 80° NNW 03:00:34 80° NNW 03:04:51 10° NNE
IRS-1D 3.5 02:57:51 10° NNE 03:02:59 77° ESE 03:03:53 60° S
Cosmos 468 Rocket 3.8 02:58:11 10° NNW 03:03:18 71° WSW 03:03:39 68° SW
Cosmos 1869 Rocket 3.8 03:07:33 55° SE 03:08:06 60° E 03:12:24 10° NNE
COSMOS 2455 4.3 03:04:14 10° N 03:09:47 37° ENE 03:15:17 10° ESE
Cosmos 1821 Rocket 3.9 03:08:30 10° N 03:14:49 78° W 03:17:19 40° S
AQUA 4.1 03:11:23 10° N 03:15:58 50° WNW 03:16:26 48° W
Cosmos 2369 Rocket 4.3 03:16:18 12° WNW 03:18:16 14° NW 03:21:07 10° NNW
ATLAS CENTAUR R/B 3.5 03:18:27 13° SE 03:19:19 14° ESE 03:21:25 10° ENE
Resurs 1-4 Rocket 2.3 03:14:10 10° N 03:19:23 57° WNW 03:20:33 47° WSW
ERS-1 4.4 03:14:11 10° NNE 03:19:25 88° WNW 03:20:52 49° SSW
Cosmos 1486 Rocket 3.9 03:18:48 53° SSW 03:20:06 84° WNW 03:25:27 10° NNE
UNKNOWN OBJECT B 3.9 03:19:40 10° NNE 03:23:27 39° E 03:24:42 30° SE
Cosmos 1703 Rocket 3.5 03:26:42 10° NNW 03:31:05 69° W 03:31:50 56° SSW
ATLAS CENTAUR Rocket 2.8 03:34:41 29° SSE 03:34:51 29° SSE 03:40:12 10° E
UNK 4.3 03:36:26 37° WSW 03:36:33 37° W 03:40:53 10° NNW
Cosmos 44 Rocket 4.2 03:39:58 25° SSE 03:42:11 41° ESE 03:46:48 10° NE
Cosmos 1503 Rocket 3.9 03:43:42 33° SSW 03:46:03 86° ESE 03:51:15 10° NNE
SL-16 R/B 3.1 03:45:26 31° SW 03:47:14 37° W 03:52:54 10° NNW
Okean 1-7 3.1 03:43:23 10° NNW 03:47:44 61° W 03:49:09 39° SSW
Cosmos 1633 3.4 03:47:35 24° SSE 03:49:20 45° E 03:52:48 10° NNE
Cosmos 1437 Rocket 3.3 03:49:15 40° WSW 03:49:59 44° W 03:53:56 10° N
Helios 1A Rocket 2.9 03:46:08 10° NNE 03:50:11 79° ESE 03:51:54 34° S
Cosmos 968 Rocket 4.3 03:46:41 18° S 03:50:16 47° ESE 03:55:19 10° NNE
ATLAS 5 CENTAUR R/B 3.8 03:49:55 27° WSW 03:53:00 62° NW 04:11:31 10° NE
MINOTAUR IV R/B 4.4 03:50:29 10° NNW 03:54:59 80° WSW 03:58:57 13° SSE
ARIANE 5 R/B 3.1 03:52:46 10° N 03:57:25 41° WNW 03:59:26 28° WSW
Cosmos 1733 Rocket 3.4 03:55:05 20° S 03:57:59 61° E 04:02:15 10° NNE
H-2A R/B 4.2 03:56:49 10° NNW 03:59:23 17° WNW 03:59:57 16° WNW
Cosmos 44 3.2 03:58:03 33° SW 04:00:05 75° WNW 04:04:58 10° NNE
Cosmos 1812 3.0 04:02:39 10° N 04:06:31 65° E 04:10:20 10° SSE
Cosmos 1763 Rocket 4.5 04:05:01 10° NW 04:09:04 25° W 04:10:00 23° WSW
Cosmos 1605 Rocket 4.0 04:04:50 10° NNW 04:10:46 57° W 04:15:55 14° SSW
SEDSat Delta rocket 3.7 04:14:02 26° SSW 04:14:35 27° SSW 04:18:10 10° SE
ADEOS 3.7 04:09:39 10° N 04:14:47 58° WNW 04:18:15 20° SW
Cosmos 1697 Rocket 3.9 04:13:05 10° S 04:18:13 37° ESE 04:23:23 10° NE
Cosmos 2100 Rocket 4.3 04:14:51 10° N 04:21:01 67° E 04:27:11 10° SSE
ASTEX 1 3.5 04:16:28 10° S 04:21:28 86° E 04:26:29 10° N
Meteor 1-27 Rocket 4.5 04:17:08 10° NNW 04:22:23 36° W 04:26:23 16° SSW
CZ-2D R/B 4.1 04:20:53 10° NNW 04:23:40 15° WNW 04:26:13 11° W
Milstar 3 Cent rocket 3.9 04:08:43 11° WSW 04:24:13 59° S 04:31:37 10° ESE
Centaur D AC-28 3.7 04:15:21 10° W 04:25:39 27° SW 04:29:42 10° SSE
DELTA 2 R/B(2) 2.4 04:25:55 70° WNW 04:26:03 87° SSW 04:27:43 10° ESE
Cosmos 1459 Rocket 4.4 04:19:45 10° N 04:26:07 69° E 04:32:26 10° SSE
Cosmos 2369 3.8 04:23:57 12° SSW 04:29:07 77° ESE 04:34:46 10° NNE
Cosmos 540 Rocket 3.8 04:26:16 10° NNW 04:31:03 41° WSW 04:35:49 10° S
Cosmos 2219 3.2 04:25:41 10° NNW 04:31:13 58° WSW 04:36:41 10° S
Meteor 1-4 Rocket 4.3 04:30:33 16° W 04:31:41 18° WNW 04:34:13 10° NNW
ADEOS II 2.4 04:27:43 10° N 04:32:50 53° WNW 04:37:15 14° SSW
Genesis I 3.7 04:30:55 10° NNW 04:34:59 66° ENE 04:38:59 10° SE
Okean 1 4.4 04:31:53 10° N 04:35:42 46° E 04:39:31 10° SSE
Okean O Rocket 3.9 04:32:22 10° NE 04:35:52 22° E 04:39:22 10° SSE
USA 81 4.0 04:30:48 10° S 04:36:01 70° W 04:41:18 10° N
Delta 2 Rocket 3.8 04:37:14 10° W 04:41:51 84° N 04:47:06 10° E
GPS 2-04 Rocket1 2.9 04:39:31 16° WSW 04:42:42 60° SSE 04:46:35 10° E
Cosmos 1980 Rocket 3.7 04:38:43 10° SSE 04:43:42 34° ESE 04:48:42 10° NE
Sich 1 Rocket 4.4 04:39:41 10° S 04:44:02 53° E 04:48:22 10° NNE
Cosmos 2123 Rocket 4.4 04:40:35 10° S 04:46:42 66° E 04:52:49 10° NNE
Shenzhou-11 Module 4.4 04:47:20 10° S 04:49:05 15° SE 04:50:48 10° ESE
Cosmos 783 Rocket 4.5 04:47:29 10° NNW 04:52:47 82° WSW 04:58:00 10° SSE
Cosmos 1271 Rocket 2.9 04:50:10 10° S 04:54:08 82° E 04:58:07 10° N
COSMOS 2455 3.6 04:50:23 10° NW 04:55:32 30° WSW 05:00:40 10° SSW
NOSS 3-1 (C) 4.3 04:48:38 10° NNW 04:56:30 86° ENE 05:05:09 10° SSE
Cosmos 2278 3.8 04:51:47 10° SSW 04:57:23 69° WNW 05:03:02 10° NNE
ATLAS CENTAUR R/B 2.2 04:54:42 11° WSW 04:57:53 33° NW 05:01:29 10° N
SL-19 R/B 4.1 04:55:16 10° S 04:58:20 49° W 05:01:50 10° NNW
Cosmos 2297 Rocket 2.2 04:55:25 10° NNW 05:01:06 88° WSW 05:06:44 10° SSE
Cosmos 389 Rocket 4.3 05:00:12 10° WSW 05:02:39 17° WNW 05:05:09 10° NNW
PSLV R/B 3.9 04:59:52 10° N 05:04:08 52° WNW 05:08:23 10° SSW
PSLV R/B 4.1 05:01:26 10° WNW 05:04:18 44° NNE 05:07:08 10° E
Meteor 1-31 Rocket 3.7 05:03:08 10° NNE 05:06:56 49° E 05:10:44 10° S
Cosmos 2173 Rocket 4.1 05:01:41 10° NNW 05:07:33 53° W 05:13:26 10° SSW
Cosmos 2227 Rocket 2.2 05:03:30 10° NNW 05:09:08 67° WSW 05:14:44 10° S
ATLAS 2A CENTAUR R/B 3.2 05:01:43 10° WSW 05:09:43 34° S 05:13:46 10° ESE
CZ-3 R/B 3.9 04:54:38 10° SW 05:12:01 29° S 05:18:18 10° ESE
